TimeCDT,TemperatureF,Dew PointF,Humidity,Sea Level PressureIn,VisibilityMPH,Wind Direction,Wind SpeedMPH,Gust SpeedMPH,PrecipitationIn,Events,Conditions,WindDirDegrees,DateUTC
12:25 AM,-9999,-9999,N/A,29.61,6.0,ENE,12.7,18.4,0.03,Rain,Light Rain,60,2013-03-24 05:25:00
12:38 AM,-9999,-9999,N/A,29.62,5.0,East,8.1,-,0.05,Rain-Thunderstorm,Rain,80,2013-03-24 05:38:00
12:53 AM,-9999,-9999,N/A,29.62,7.0,Variable,5.8,-,0.05,Rain-Thunderstorm,Light Rain,0,2013-03-24 05:53:00
1:15 AM,-9999,-9999,N/A,29.60,5.0,ENE,8.1,-,0.01,Rain-Thunderstorm,Light Rain,60,2013-03-24 06:15:00
1:53 AM,-9999,-9999,N/A,29.66,3.0,NNW,13.8,20.7,0.07,Rain-Thunderstorm,Thunderstorms and Rain,330,2013-03-24 06:53:00
1:59 AM,-9999,-9999,N/A,29.69,2.5,NW,10.4,25.3,0.04,Rain-Thunderstorm,Light Thunderstorms and Rain,320,2013-03-24 06:59:00
2:01 AM,-9999,-9999,N/A,29.69,1.8,NNW,11.5,25.3,0.10,Rain-Thunderstorm,Heavy Thunderstorms and Rain,330,2013-03-24 07:01:00
2:19 AM,-9999,-9999,N/A,29.68,3.0,NNW,17.3,24.2,0.25,Rain-Thunderstorm,Light Rain,340,2013-03-24 07:19:00
2:29 AM,-9999,-9999,N/A,29.68,8.0,NNW,12.7,-,0.25,Rain-Thunderstorm,Light Rain,330,2013-03-24 07:29:00
2:53 AM,-9999,-9999,N/A,29.65,6.0,North,11.5,-,0.32,Rain-Thunderstorm,Light Rain,10,2013-03-24 07:53:00
3:10 AM,-9999,-9999,N/A,29.63,9.0,NNE,15.0,-,0.00,Rain,Light Rain,30,2013-03-24 08:10:00
3:31 AM,-9999,-9999,N/A,29.58,10.0,ENE,13.8,-,0.00,,Scattered Clouds,60,2013-03-24 08:31:00
3:53 AM,55.9,52.0,87,29.59,10.0,NE,8.1,-,0.00,,Mostly Cloudy,40,2013-03-24 08:53:00
4:53 AM,55.0,52.0,89,29.56,10.0,East,5.8,-,N/A,,Clear,80,2013-03-24 09:53:00
5:53 AM,54.0,51.1,90,29.60,10.0,Calm,Calm,-,N/A,,Scattered Clouds,0,2013-03-24 10:53:00
6:53 AM,50.0,48.0,93,29.62,10.0,Calm,Calm,-,N/A,,Clear,0,2013-03-24 11:53:00
7:53 AM,54.0,51.1,90,29.65,10.0,NW,6.9,-,N/A,,Scattered Clouds,320,2013-03-24 12:53:00
8:53 AM,59.0,53.1,81,29.62,10.0,NNE,3.5,-,N/A,,Partly Cloudy,30,2013-03-24 13:53:00
9:09 AM,59.0,51.8,77,29.63,10.0,Variable,3.5,-,N/A,,Mostly Cloudy,0,2013-03-24 14:09:00
9:53 AM,59.0,52.0,78,29.66,10.0,WSW,5.8,-,N/A,,Overcast,250,2013-03-24 14:53:00
10:03 AM,59.0,53.6,82,29.66,10.0,WSW,8.1,-,N/A,,Overcast,250,2013-03-24 15:03:00
10:53 AM,60.1,54.0,80,29.65,10.0,WSW,6.9,-,N/A,,Overcast,240,2013-03-24 15:53:00
11:53 AM,62.1,55.0,78,29.64,10.0,SW,9.2,-,N/A,,Overcast,230,2013-03-24 16:53:00
12:53 PM,62.1,54.0,75,29.63,10.0,WSW,13.8,21.9,N/A,,Overcast,240,2013-03-24 17:53:00
1:53 PM,59.0,55.0,87,29.63,2.5,WSW,15.0,25.3,0.00,Rain,Light Rain,250,2013-03-24 18:53:00
2:01 PM,59.0,55.4,88,29.63,3.0,West,18.4,25.3,0.00,Rain,Light Rain,260,2013-03-24 19:01:00
2:14 PM,57.2,55.4,94,29.64,3.0,West,20.7,26.5,0.00,Rain,Light Rain,270,2013-03-24 19:14:00
2:41 PM,53.6,50.0,88,29.66,3.0,West,21.9,33.4,0.00,Rain,Light Rain,280,2013-03-24 19:41:00
2:53 PM,53.1,50.0,89,29.67,3.0,West,19.6,28.8,0.00,,Overcast,270,2013-03-24 19:53:00
3:16 PM,55.4,48.2,77,29.66,10.0,West,12.7,23.0,N/A,,Overcast,260,2013-03-24 20:16:00
3:53 PM,57.0,46.0,67,29.66,10.0,West,16.1,23.0,N/A,,Scattered Clouds,280,2013-03-24 20:53:00
4:53 PM,57.9,37.9,47,29.68,10.0,West,23.0,39.1,N/A,,Clear,260,2013-03-24 21:53:00
5:53 PM,53.1,35.1,50,29.74,10.0,West,19.6,34.5,N/A,,Mostly Cloudy,280,2013-03-24 22:53:00
6:53 PM,48.0,32.0,54,29.81,10.0,West,16.1,28.8,N/A,,Overcast,280,2013-03-24 23:53:00
7:53 PM,46.9,32.0,56,29.84,10.0,WNW,15.0,29.9,N/A,,Overcast,290,2013-03-25 00:53:00
8:53 PM,46.0,28.0,50,29.87,10.0,WNW,12.7,23.0,N/A,,Overcast,290,2013-03-25 01:53:00
9:53 PM,45.0,28.0,52,29.89,10.0,WNW,12.7,23.0,N/A,,Overcast,290,2013-03-25 02:53:00
10:53 PM,45.0,28.9,53,29.90,10.0,WNW,16.1,24.2,N/A,,Overcast,290,2013-03-25 03:53:00
11:53 PM,43.0,25.0,49,29.92,10.0,NW,15.0,32.2,N/A,,Overcast,310,2013-03-25 04:53:00